Regional Weather Roundup
Issued by NWS

Home | Current Version | Previous Version | Text Only | Print | Product List | Glossary On
Versions: 1 2 3 4 5 6 7 8 9 10 11 12 13 14 15 16 17 18 19 20 21 22 23 24 25 26 27 28 29 30 31 32 33 34 35 36 37 38 39 40 41 42 43 44 45 46 47 48 49 50
000
ASUS43 KLSX 251307
RWRMO

WEATHER SUMMARY FOR MISSOURI
NATIONAL WEATHER SERVICE SPRINGFIELD MO
800 AM CDT MON SEP 25 2017

NOTE: "FAIR" INDICATES FEW OR NO CLOUDS BELOW 12,000 FEET WITH NO
       SIGNIFICANT WEATHER AND/OR OBSTRUCTIONS TO VISIBILITY.
       CURRENT SKY AND/OR WEATHER CONDITIONS ARE NOT AVAILABLE FOR
       CHILLICOTHE AND FARMINGTON.

MOZ001>031-035>038-043-044-053-054-251400-
...NORTHERN AND WESTERN MISSOURI...

CITY           SKY/WX    TMP DP  RH WIND       PRES   REMARKS
KANSAS CTY INT PTCLDY    68  65  90 S7        29.95R
KANSAS C DTWN  CLEAR     73  65  75 S6        29.94R
LEE`S SUMMIT   CLEAR     68  65  90 S6        29.96R
ST JOSEPH      CLEAR     70  67  90 SE5       29.94R
CHILLICOTHE      N/A     67  66  97 CALM      29.97R
KIRKSVILLE     MOSUNNY   69  66  90 S5        29.98S

$$
MOZ066>068-077>081-088>096-101>105-251400-
...SOUTHWEST MISSOURI...

CITY           SKY/WX    TMP DP  RH WIND       PRES   REMARKS
SPRINGFIELD    SUNNY     69  66  90 S9        30.00R
JOPLIN         PTCLDY    70  66  87 S7        29.97R
BRANSON        MOSUNNY   66  66 100 CALM      30.03R

$$
MOZ032>034-039>042-045>050-055>058-069>072-251400-
...CENTRAL MISSOURI...

CITY           SKY/WX    TMP DP  RH WIND       PRES   REMARKS
COLUMBIA       SUNNY     68  65  90 SE6       30.00R
JEFFERSON CITY SUNNY     67  63  87 SE3       29.99R
ROLLA          SUNNY     70  65  84 S7        30.03R
SEDALIA        CLOUDY    72  68  87 S7        29.99R
WHITEMAN AFB   PTCLDY    68  64  89 S7        29.96R
WARRENSBURG    CLOUDY    68  63  83 SE6       29.96S
OSAGE BEACH    SUNNY     68  64  87 SE5       30.01R

$$
MOZ051-052-059>065-251400-
...EAST CENTRAL MISSOURI...

CITY           SKY/WX    TMP DP  RH WIND       PRES   REMARKS
ST LOUIS INTL  MOSUNNY   73  66  78 SE5       30.02S
SPIRIT OF STL  SUNNY     68  66  93 CALM      30.01R
ST CHARLES     SUNNY     69  67  93 CALM      30.01S FOG

$$
MOZ072>076-082>087-097>100-106>115-251400-
...SOUTH CENTRAL AND SOUTHEAST MISSOURI...

CITY           SKY/WX    TMP DP  RH WIND       PRES   REMARKS
CAPE GIRARDEAU SUNNY     67  65  93 SE3       30.02S FOG
FARMINGTON     SUNNY     66  64  93 CALM      30.05R
POPLAR BLUFF   SUNNY     67  65  93 CALM      30.01S FOG
WEST PLAINS    SUNNY     65  62  90 CALM      30.05R

$$


USA.gov is the U.S. government's official web portal to all federal, state and local government web resources and services.